This demonstration page uses our WeatherBlox Daily Observations layout. Learn more.

Left ArrowRight Arrow

39.92423, -83.80882

Hourly Observations for March 12, 2022

Temp ( °F °C ) Dew Point ( °F °C ) Humidity (%) Winds ( mph kmh ) Pressure ( in mb ) Visibility ( mi km ) Precip ( " mm )
12:36 am 00:36 Cloudy 25 -4 19 -7 80 80 NW 16 26 29.98 1015 10 16 0.00 0.00
12:56 am 00:56 Cloudy 25 -3.9 19 -7.2 78 78 NW 13 20 29.93 1014 10 16 0.00 0.00
1:17 am 01:17 Cloudy 25 -4 18 -8 74 74 NW 15 24 29.97 1015 10 16 0.00 0.00
1:34 am 01:34 Cloudy 25 -4 18 -8 74 74 NW 16 26 29.98 1015 10 16 0.00 0.00
1:41 am 01:41 Cloudy 25 -4 16 -9 69 69 NW 17 28 29.99 1016 10 16 0.00 0.00
1:56 am 01:56 Cloudy 24 -4.4 16 -8.9 71 71 NW 14 22 29.94 1014 10 16 0.00 0.00
2:04 am 02:04 Cloudy 25 -4 18 -8 74 74 NW 13 20 29.98 1015 10 16 0.00 0.00
2:56 am 02:56 Cloudy 23 -5 14 -10 68 68 NW 18 30 29.94 1014 10 16 0.00 0.00
3:56 am 03:56 Cloudy 22 -5.6 13 -10.6 68 68 NW 17 28 29.94 1014 10 16 0.00 0.00
4:56 am 04:56 Windy with Snow Likely 20 -6.7 15 -9.4 81 81 NNW 20 31 29.95 1014 6 10 0.00 0.00
5:56 am 05:56 Windy with Snow Likely 20 -6.7 13 -10.6 74 74 NNW 21 33 29.98 1015 10 16 0.00 0.00
6:17 am 06:17 Cloudy with Light Snow 19 -7 16 -9 86 86 N 18 30 30.03 1017 2 3 0.00 0.00
6:22 am 06:22 Cloudy with Light Snow 19 -7 16 -9 86 86 N 16 26 30.05 1017 3 5 0.00 0.00
6:51 am 06:51 Cloudy 18 -8 9 -13 68 68 NNW 20 31 30.05 1018 10 16 0.00 0.00
6:56 am 06:56 Cloudy 18 -7.8 8 -13.3 65 65 NNW 21 33 30.01 1016 10 16 0.00 0.00
7:56 am 07:56 Sunny 18 -7.8 7 -13.9 62 62 NNW 17 28 30.03 1017 10 16 0.00 0.00
8:52 am 08:52 Mostly Cloudy with Light Snow 18 -8 10 -12 73 73 NW 20 31 30.08 1019 9 14 0.00 0.00
8:56 am 08:56 Mostly Cloudy 17 -8.3 9 -12.8 70 70 NW 17 28 30.04 1017 9 14 0.00 0.00
9:56 am 09:56 Cloudy with Light Snow 19 -7.2 10 -12.2 68 68 NW 17 28 30.05 1018 5 8 0.00 0.00
10:05 am 10:05 Windy with Snow Likely 19 -7 10 -12 68 68 NNW 20 31 30.09 1019 8 13 0.00 0.00
10:23 am 10:23 Cloudy with Light Snow 19 -7 12 -11 73 73 NW 16 26 30.09 1019 6 10 0.00 0.00
10:41 am 10:41 Windy with Snow Likely 19 -7 12 -11 73 73 WNW 24 39 30.10 1019 1 2 0.00 0.00
10:43 am 10:43 Windy with Snow Likely 18 -8 14 -10 86 86 WNW 22 35 30.10 1019 1 1 0.00 0.00
10:51 am 10:51 Mostly Cloudy with Light Snow 18 -8 16 -9 93 93 NW 12 19 30.10 1019 1 2 0.00 0.00
10:53 am 10:53 Mostly Cloudy with Light Snow 19 -7 14 -10 79 79 NW 14 22 30.10 1019 3 5 0.00 0.00
10:56 am 10:56 Mostly Cloudy with Light Snow 19 -7.2 14 -10 81 81 NW 17 28 30.06 1018 9 14 0.00 0.00
11:49 am 11:49 Mostly Cloudy with Light Snow 19 -7 14 -10 79 79 WNW 21 33 30.12 1020 2 3 0.00 0.00
11:54 am 11:54 Mostly Cloudy with Light Snow 19 -7 16 -9 86 86 WNW 17 28 30.12 1020 1 2 0.00 0.00
11:56 am 11:56 Mostly Cloudy with Light Snow 19 -7.2 16 -8.9 88 88 NW 18 30 30.09 1019 1 2 0.00 0.00
12:02 pm 12:02 Mostly Cloudy with Light Snow 19 -7 14 -10 79 79 NW 16 26 30.12 1020 4 6 0.00 0.00
12:29 pm 12:29 Mostly Cloudy with Light Snow 19 -7 12 -11 73 73 NW 22 35 30.13 1020 3 4 0.00 0.00
12:32 pm 12:32 Windy with Snow Likely 19 -7 14 -10 79 79 NW 24 39 30.13 1020 1 2 0.00 0.00
12:34 pm 12:34 Windy with Snow Likely 19 -7 16 -9 86 86 WNW 21 33 30.13 1020 1 1 0.00 0.00
12:44 pm 12:44 Cloudy with Light Snow 19 -7 18 -8 93 93 WNW 16 26 30.13 1020 1 2 0.00 0.00
12:46 pm 12:46 Cloudy with Light Snow 19 -7 16 -9 86 86 WNW 18 30 30.13 1020 2 3 0.00 0.00
12:53 pm 12:53 Cloudy with Light Snow 19 -7 14 -10 79 79 WNW 18 30 30.12 1020 7 11 0.00 0.00
12:56 pm 12:56 Cloudy with Light Snow 20 -6.7 14 -10 78 78 WNW 17 28 30.09 1019 8 13 0.00 0.00
1:03 pm 13:03 Mostly Cloudy with Light Snow 21 -6 12 -11 68 68 WNW 22 35 30.11 1020 9 14 0.00 0.00
1:10 pm 13:10 Mostly Cloudy with Light Snow 21 -6 12 -11 68 68 WNW 20 31 30.12 1020 3 4 0.00 0.00
1:24 pm 13:24 Mostly Cloudy with Light Snow 19 -7 12 -11 73 73 WNW 20 31 30.12 1020 5 8 0.00 0.00
1:53 pm 13:53 Windy with Snow Likely 19 -7 10 -12 68 68 WNW 28 44 30.12 1020 4 6 0.00 0.00
1:56 pm 13:56 Windy with Snow Likely 20 -6.7 11 -11.7 68 68 WNW 24 39 30.08 1019 3 5 0.00 0.00
2:56 pm 14:56 Cloudy 21 -6.1 9 -12.8 59 59 W 24 39 30.08 1019 9 14 0.00 0.00
3:56 pm 15:56 Mostly Cloudy 21 -6.1 8 -13.3 57 57 WNW 24 39 30.09 1019 10 16 0.00 0.00
4:56 pm 16:56 Cloudy 21 -6.1 8 -13.3 57 57 W 23 37 30.10 1019 10 16 0.00 0.00
5:56 pm 17:56 Cloudy 20 -6.7 8 -13.3 60 60 WNW 23 37 30.14 1021 10 16 0.00 0.00
6:56 pm 18:56 Partly Cloudy 19 -7.2 8 -13.3 62 62 WNW 22 35 30.16 1021 10 16 0.00 0.00
7:56 pm 19:56 Mostly Clear 18 -7.8 8 -13.3 65 65 WNW 15 24 30.19 1023 10 16 0.00 0.00
8:56 pm 20:56 Clear 17 -8.3 8 -13.3 68 68 WNW 13 20 30.23 1024 10 16 0.00 0.00
9:56 pm 21:56 Clear 16 -8.9 9 -12.8 74 74 W 9 15 30.26 1025 10 16 0.00 0.00
10:56 pm 22:56 Clear 15 -9.4 9 -12.8 77 77 W 8 13 30.27 1025 10 16 0.00 0.00
11:56 pm 23:56 Clear 14 -10 8 -13.3 77 77 W 7 11 30.26 1025 10 16 0.00 0.00

Powered by AerisWeather